Location: Banff
(51.1670°N, 115.5670°W)
Time: 05:11:52
(UTC-06:00)

Amateur Radio Satellites - All Passes

Search period start: 25 October 2014 04:41
Search period end: 26 October 2014 04:41
Location: Banff, 51.1670°N, 115.5670°W

Satellite Date Start Highest point End Downlink Frequencies (MHz)
Time Altitude Azimuth
AO-Echo 25 Oct 04:51:27 04:56:26 43° 294° (WNW) 05:01:27 ?
Uosat F 25 Oct 04:59:01 05:02:03 16° 88° (E) 05:05:04 435.120 FM
Oscar 16 25 Oct 04:59:16 05:03:18 24° 302° (WNW) 05:07:19 437.025 USB, Beacon 2401.1428
Sapphire 25 Oct 05:07:39 05:12:54 54° 119° (ESE) 05:18:13 437.095 MHz 1200 baud AX-25 AFSK
AO-7 25 Oct 05:11:17 05:18:36 33° 94° (E) 05:25:52 29.400 - 29.500 MHz
Uribyol 2 25 Oct 05:18:58 05:23:37 33° 298° (WNW) 05:28:13 436.500 FM
JAS-1B 25 Oct 05:24:29 05:29:50 30° 302° (WNW) 05:35:56 435.800 - 435.900 CW/SSB
ITAMSAT 1 25 Oct 05:25:07 05:29:42 32° 299° (WNW) 05:34:16 435.822 SSB
PCSat 25 Oct 05:29:58 05:35:23 81° 125° (SE) 05:40:51 145.825 MHz
Gurwin Techsat 1B 25 Oct 05:46:39 05:51:29 36° 297° (WNW) 05:56:18 435.225 FM
OPAL 25 Oct 05:51:00 05:56:09 82° 252° (WSW) 06:01:16 ?
Oscar 19 25 Oct 05:54:55 05:56:00 11° 313° (NW) 05:57:05 437.125 CW, 437.150 USB
TMSAT-1 25 Oct 05:57:39 06:02:32 38° 296° (WNW) 06:07:23 436.925 FM
STRAND 1 25 Oct 05:59:02 06:02:38 20° 55° (NE) 06:06:15 ?
AO-27 25 Oct 06:11:52 06:14:57 16° 308° (NW) 06:18:02 436.795 MHz FM
Uosat F 25 Oct 06:36:26 06:41:32 86° 287° (WNW) 06:46:35 435.120 FM
JAS-2 25 Oct 06:39:15 06:46:34 44° 95° (E) 06:53:58 435.800 - 435.900 CW/SSB, 435.910 FM
RS-15 25 Oct 06:42:31 06:53:33 66° 39° (NE) 07:04:58 29.354 - 29.394 USB, Beacon 29.352 USB
Sapphire 25 Oct 06:51:33 06:56:35 38° 321° (NW) 07:01:39 437.095 MHz 1200 baud AX-25 AFSK
AO-7 25 Oct 07:03:48 07:12:05 73° 295° (WNW) 07:20:21 29.400 - 29.500 MHz
PCSat 25 Oct 07:14:44 07:19:25 29° 327° (NNW) 07:24:08 145.825 MHz
Hamsat 25 Oct 07:32:56 07:37:07 64° 101° (ESE) 07:41:17 145.90 MHz
OPAL 25 Oct 07:33:19 07:35:49 14° 271° (W) 07:38:20 ?
STRAND 1 25 Oct 07:36:06 07:41:14 83° 255° (WSW) 07:46:27 ?
Uosat F 25 Oct 08:16:27 08:19:37 17° 307° (NW) 08:22:48 435.120 FM
JAS-2 25 Oct 08:24:18 08:31:43 55° 295° (WNW) 08:39:18 435.800 - 435.900 CW/SSB, 435.910 FM
SO-67 25 Oct 08:29:31 08:32:45 36° 97° (E) 08:35:58 435.3500 MHz FM
Saudisat 1A 25 Oct 08:29:45 08:33:43 34° 120° (ESE) 08:37:43 436.775 MHz
MaSat-1 25 Oct 08:33:01 08:34:58 17° 42° (NE) 08:36:47 437.345 MHz
Sapphire 25 Oct 08:38:04 08:41:34 17° 346° (NNW) 08:45:04 437.095 MHz 1200 baud AX-25 AFSK
RS-15 25 Oct 08:55:13 09:05:45 52° 245° (WSW) 09:16:44 29.354 - 29.394 USB, Beacon 29.352 USB
AO-7 25 Oct 08:57:24 09:03:39 25° 319° (NW) 09:09:54 29.400 - 29.500 MHz
PCSat 25 Oct 09:01:28 09:04:40 15° 352° (N) 09:07:51 145.825 MHz
Hamsat 25 Oct 09:09:49 09:12:39 18° 300° (WNW) 09:15:29 145.90 MHz
HO-68 25 Oct 09:17:29 09:22:09 18° 85° (E) 09:26:47 435.675 MHz FM
STRAND 1 25 Oct 09:18:42 09:21:16 14° 274° (W) 09:23:51 ?
SO-67 25 Oct 10:02:58 10:05:33 20° 296° (WNW) 10:08:07 435.3500 MHz FM
MaSat-1 25 Oct 10:08:15 10:10:43 31° 246° (WSW) 10:13:00 437.345 MHz
Saudisat 1A 25 Oct 10:08:59 10:13:13 45° 321° (NW) 10:17:29 436.775 MHz
JAS-2 25 Oct 10:10:41 10:15:16 18° 316° (NW) 10:19:58 435.800 - 435.900 CW/SSB, 435.910 FM
Sapphire 25 Oct 10:23:48 10:27:12 16° 12° (NNE) 10:30:35 437.095 MHz 1200 baud AX-25 AFSK
ZACube-1 25 Oct 10:42:52 10:43:46 11° 85° (E) 10:44:40 437.345 MHz
UKube-1 25 Oct 10:44:55 10:48:33 25° 94° (E) 10:52:10 145.840 MHz, 145.915 MHz
PCSat 25 Oct 10:46:29 10:50:15 19° 19° (NNE) 10:54:01 145.825 MHz
AO-7 25 Oct 10:51:54 10:53:31 11° 345° (NNW) 10:55:08 29.400 - 29.500 MHz
HO-68 25 Oct 11:03:48 11:11:03 78° 107° (ESE) 11:18:15 435.675 MHz FM
RS-15 25 Oct 11:11:24 11:15:15 12° 268° (W) 11:19:09 29.354 - 29.394 USB, Beacon 29.352 USB
FUNcube-1 25 Oct 11:25:18 11:28:58 27° 94° (E) 11:32:33 145.950 - 145.970 MHz USB
Oscar 11 25 Oct 11:25:33 11:29:50 58° 101° (E) 11:34:04 145.825 FM, Beacon 2401.500 USB
Saudisat 1A 25 Oct 11:50:49 11:53:49 18° 344° (NNW) 11:56:50 436.775 MHz
Sapphire 25 Oct 12:07:19 12:12:17 34° 37° (NE) 12:17:13 437.095 MHz 1200 baud AX-25 AFSK
ZACube-1 25 Oct 12:16:36 12:20:56 84° 104° (ESE) 12:25:08 437.345 MHz
Oscar 19 25 Oct 12:19:47 12:22:14 14° 50° (NE) 12:24:41 437.125 CW, 437.150 USB
UKube-1 25 Oct 12:20:46 12:24:55 43° 293° (WNW) 12:29:03 145.840 MHz, 145.915 MHz
PCSat 25 Oct 12:29:46 12:35:02 46° 43° (NE) 12:40:15 145.825 MHz
JAS-1B 25 Oct 12:37:10 12:40:59 19° 51° (NE) 12:44:49 435.800 - 435.900 CW/SSB
AO-27 25 Oct 12:41:20 12:41:56 10° 45° (NE) 12:42:31 436.795 MHz FM
AO-7 25 Oct 12:41:35 12:42:36 10° 13° (NNE) 12:43:38 29.400 - 29.500 MHz
KITSAT 1 25 Oct 12:50:27 12:57:52 42° 113° (ESE) 13:05:18 435.175 FM
HO-68 25 Oct 12:52:09 12:58:10 30° 308° (NW) 13:04:11 435.675 MHz FM
AO-Echo 25 Oct 12:55:10 12:57:45 14° 51° (NE) 13:00:23 ?
FUNcube-1 25 Oct 13:01:30 13:05:28 37° 293° (WNW) 13:09:21 145.950 - 145.970 MHz USB
Oscar 11 25 Oct 13:02:31 13:05:39 20° 300° (WNW) 13:08:48 145.825 FM, Beacon 2401.500 USB
Oscar 16 25 Oct 13:03:17 13:07:35 28° 60° (ENE) 13:11:54 437.025 USB, Beacon 2401.1428
Uribyol 2 25 Oct 13:24:42 13:28:34 21° 56° (NE) 13:32:26 436.500 FM
ITAMSAT 1 25 Oct 13:30:46 13:34:44 23° 57° (ENE) 13:38:43 435.822 SSB
ISS 25 Oct 13:31:30 13:33:38 16° 141° (SE) 13:35:47 145.800 FM
Saudisat 1A 25 Oct 13:32:24 13:35:02 15° 8° (N) 13:37:40 436.775 MHz
Sapphire 25 Oct 13:50:41 13:56:04 62° 239° (WSW) 14:01:25 437.095 MHz 1200 baud AX-25 AFSK
ZACube-1 25 Oct 13:54:22 13:56:44 15° 304° (NW) 13:59:04 437.345 MHz
Gurwin Techsat 1B 25 Oct 13:54:56 13:58:46 21° 55° (NE) 14:02:37 435.225 FM
Oscar 19 25 Oct 13:55:35 14:00:41 66° 70° (ENE) 14:05:47 437.125 CW, 437.150 USB
TMSAT-1 25 Oct 14:05:52 14:09:34 20° 55° (NE) 14:13:16 436.925 FM
SO-50 25 Oct 14:13:14 14:17:41 57° 125° (SE) 14:22:16 436.795 FM
PCSat 25 Oct 14:13:22 14:18:26 41° 244° (WSW) 14:23:28 145.825 MHz
AO-27 25 Oct 14:15:16 14:20:14 46° 66° (ENE) 14:25:14 436.795 MHz FM
JAS-1B 25 Oct 14:25:09 14:30:59 89° 253° (WSW) 14:36:44 435.800 - 435.900 CW/SSB
AO-7 25 Oct 14:26:23 14:32:24 23° 40° (NE) 14:38:24 29.400 - 29.500 MHz
AO-Echo 25 Oct 14:30:41 14:35:37 70° 71° (ENE) 14:40:44 ?
Oscar 16 25 Oct 14:41:37 14:46:41 54° 259° (W) 14:51:45 437.025 USB, Beacon 2401.1428
KITSAT 1 25 Oct 14:44:58 14:53:00 65° 316° (NW) 15:01:04 435.175 FM
Uribyol 2 25 Oct 15:02:17 15:07:31 76° 256° (WSW) 15:12:47 436.500 FM
ISS 25 Oct 15:06:33 15:09:50 58° 159° (SSE) 15:13:08 145.800 FM
ITAMSAT 1 25 Oct 15:08:33 15:13:45 72° 256° (WSW) 15:19:01 435.822 SSB
Saudisat 1A 25 Oct 15:12:00 15:15:56 30° 32° (NNE) 15:19:51 436.775 MHz
Gurwin Techsat 1B 25 Oct 15:32:51 15:38:10 81° 255° (WSW) 15:43:32 435.225 FM
UOSAT-12 25 Oct 15:33:00 15:37:19 38° 121° (ESE) 15:41:43 437.025 FM, 437.400 FM
Oscar 19 25 Oct 15:36:36 15:40:30 21° 270° (W) 15:44:24 437.125 CW, 437.150 USB
Sapphire 25 Oct 15:36:48 15:38:25 11° 259° (WSW) 15:40:02 437.095 MHz 1200 baud AX-25 AFSK
TMSAT-1 25 Oct 15:43:33 15:48:52 86° 255° (WSW) 15:54:14 436.925 FM
SO-50 25 Oct 15:54:20 15:58:31 34° 327° (NNW) 16:02:50 436.795 FM
AO-27 25 Oct 15:55:20 15:59:56 31° 265° (W) 16:04:35 436.795 MHz FM
AO-Echo 25 Oct 16:11:26 16:14:57 19° 272° (W) 16:18:35 ?
AO-7 25 Oct 16:15:40 16:23:50 68° 63° (ENE) 16:32:03 29.400 - 29.500 MHz
Uosat F 25 Oct 16:16:43 16:21:19 38° 64° (ENE) 16:25:58 435.120 FM
JAS-1B 25 Oct 16:19:31 16:22:40 15° 274° (W) 16:25:48 435.800 - 435.900 CW/SSB
KITSAT 1 25 Oct 16:42:56 16:50:00 32° 343° (NNW) 16:57:05 435.175 FM
ISS 25 Oct 16:43:10 16:46:31 80° 359° (N) 16:49:52 145.800 FM
Uribyol 2 25 Oct 16:45:38 16:47:54 13° 275° (W) 16:50:11 436.500 FM
Saudisat 1A 25 Oct 16:51:26 16:55:50 63° 233° (SW) 17:00:12 436.775 MHz
ITAMSAT 1 25 Oct 16:52:19 16:54:13 12° 276° (W) 16:56:08 435.822 SSB
JAS-2 25 Oct 16:57:32 17:03:01 33° 56° (NE) 17:09:07 435.800 - 435.900 CW/SSB, 435.910 FM
Hamsat 25 Oct 16:57:59 16:59:53 13° 56° (NE) 17:01:47 145.90 MHz
UOSAT-12 25 Oct 17:12:57 17:17:27 45° 322° (NW) 17:22:02 437.025 FM, 437.400 FM
Gurwin Techsat 1B 25 Oct 17:16:19 17:19:00 14° 275° (W) 17:21:42 435.225 FM
TMSAT-1 25 Oct 17:26:40 17:29:36 15° 274° (W) 17:32:34 436.925 FM
SO-50 25 Oct 17:37:20 17:40:25 17° 351° (N) 17:43:34 436.795 FM
Uosat F 25 Oct 17:55:29 18:00:07 37° 263° (W) 18:04:49 435.120 FM
OPAL 25 Oct 17:56:55 18:00:01 16° 91° (E) 18:03:06 ?
AO-7 25 Oct 18:09:48 18:17:12 35° 265° (W) 18:24:40 29.400 - 29.500 MHz
ISS 25 Oct 18:19:54 18:23:13 64° 199° (SSW) 18:26:32 145.800 FM
Hamsat 25 Oct 18:30:59 18:35:12 86° 75° (ENE) 18:39:25 145.90 MHz
KITSAT 1 25 Oct 18:41:03 18:47:59 30° 12° (NNE) 18:54:55 435.175 FM
JAS-2 25 Oct 18:41:32 18:47:37 64° 260° (W) 18:54:36 435.800 - 435.900 CW/SSB, 435.910 FM
UOSAT-12 25 Oct 18:55:21 18:58:44 19° 345° (NNW) 19:02:07 437.025 FM, 437.400 FM
SO-67 25 Oct 19:07:06 19:10:04 28° 67° (ENE) 19:13:04 435.3500 MHz FM
SO-50 25 Oct 19:19:15 19:22:41 19° 16° (NNE) 19:26:10 436.795 FM
OPAL 25 Oct 19:34:33 19:39:33 82° 290° (WNW) 19:44:30 ?
STRAND 1 25 Oct 19:42:02 19:46:08 23° 91° (E) 19:50:12 ?
HO-68 25 Oct 19:51:46 19:57:32 27° 50° (NE) 20:03:19 435.675 MHz FM
ISS 25 Oct 19:57:05 19:59:28 18° 218° (SW) 20:01:51 145.800 FM
Hamsat 25 Oct 20:10:12 20:11:46 12° 274° (W) 20:13:21 145.90 MHz
JAS-2 25 Oct 20:31:40 20:34:23 13° 283° (WNW) 20:37:13 435.800 - 435.900 CW/SSB, 435.910 FM
KITSAT 1 25 Oct 20:37:16 20:45:14 56° 40° (NE) 20:53:09 435.175 FM
UOSAT-12 25 Oct 20:37:26 20:40:34 17° 9° (N) 20:43:43 437.025 FM, 437.400 FM
SO-67 25 Oct 20:40:11 20:43:03 24° 266° (W) 20:45:57 435.3500 MHz FM
Oscar 11 25 Oct 20:52:00 20:54:09 14° 55° (NE) 20:56:18 145.825 FM, Beacon 2401.500 USB
SO-50 25 Oct 20:59:42 21:04:21 46° 39° (NE) 21:09:03 436.795 FM
OPAL 25 Oct 21:14:41 21:17:44 16° 310° (NW) 21:20:45 ?
RS-15 25 Oct 21:18:24 21:24:37 17° 96° (E) 21:30:47 29.354 - 29.394 USB, Beacon 29.352 USB
STRAND 1 25 Oct 21:20:38 21:25:44 60° 291° (WNW) 21:30:48 ?
HO-68 25 Oct 21:37:19 21:44:30 86° 252° (WSW) 21:51:46 435.675 MHz FM
ZACube-1 25 Oct 21:42:57 21:46:12 20° 60° (ENE) 21:49:25 437.345 MHz
UKube-1 25 Oct 21:45:01 21:49:07 42° 67° (ENE) 21:53:16 145.840 MHz, 145.915 MHz
UOSAT-12 25 Oct 22:17:42 22:22:03 34° 33° (NNE) 22:26:21 437.025 FM, 437.400 FM
Oscar 11 25 Oct 22:25:21 22:29:41 86° 75° (ENE) 22:34:02 145.825 FM, Beacon 2401.500 USB
FUNcube-1 25 Oct 22:26:06 22:30:25 43° 68° (ENE) 22:34:40 145.950 - 145.970 MHz USB
KITSAT 1 25 Oct 22:32:56 22:40:40 51° 243° (WSW) 22:48:22 435.175 FM
SO-50 25 Oct 22:40:25 22:44:54 39° 239° (WSW) 22:49:25 436.795 FM
STRAND 1 25 Oct 23:01:45 23:03:57 13° 311° (NW) 23:06:09 ?
Oscar 10/S400 25 Oct 23:11:21 23:57:08 33° 211° (SSW) 04:30:01 145.825 - 145.975 CW/USB, Beacon 145.810 USB
ZACube-1 25 Oct 23:17:39 23:22:12 66° 258° (WSW) 23:26:41 437.345 MHz
UKube-1 25 Oct 23:21:50 23:25:29 26° 266° (W) 23:29:09 145.840 MHz, 145.915 MHz
RS-15 25 Oct 23:23:50 23:34:33 64° 120° (ESE) 23:45:16 29.354 - 29.394 USB, Beacon 29.352 USB
HO-68 25 Oct 23:28:09 23:33:15 21° 273° (W) 23:38:24 435.675 MHz FM
MaSat-1 25 Oct 23:50:06 23:52:34 16° 109° (ESE) 23:54:54 437.345 MHz
UOSAT-12 25 Oct 23:57:49 00:02:29 58° 234° (SW) 00:07:04 437.025 FM, 437.400 FM
FUNcube-1 26 Oct 00:03:06 00:06:57 27° 267° (W) 00:10:46 145.950 - 145.970 MHz USB
Oscar 11 26 Oct 00:04:39 00:06:30 12° 274° (W) 00:08:21 145.825 FM, Beacon 2401.500 USB
KITSAT 1 26 Oct 00:32:02 00:34:09 11° 265° (W) 00:36:16 435.175 FM
MaSat-1 26 Oct 01:23:59 01:27:53 62° 305° (NW) 01:31:22 437.345 MHz
RS-15 26 Oct 01:36:31 01:47:14 57° 328° (NNW) 01:58:08 29.354 - 29.394 USB, Beacon 29.352 USB
JAS-1B 26 Oct 02:02:26 02:07:11 20° 89° (E) 02:12:26 435.800 - 435.900 CW/SSB
Oscar 19 26 Oct 02:03:10 02:06:11 16° 87° (E) 02:09:12 437.125 CW, 437.150 USB
AO-27 26 Oct 02:25:49 02:26:50 11° 83° (E) 02:27:51 436.795 MHz FM
AO-Echo 26 Oct 02:33:34 02:37:01 17° 87° (E) 02:40:28 ?
Oscar 16 26 Oct 02:48:03 02:52:47 36° 96° (E) 02:57:29 437.025 USB, Beacon 2401.1428
MaSat-1 26 Oct 03:02:48 03:04:03 11° 323° (NW) 03:05:17 437.345 MHz
Uribyol 2 26 Oct 03:10:13 03:14:36 26° 93° (E) 03:18:57 436.500 FM
ITAMSAT 1 26 Oct 03:16:32 03:21:02 28° 93° (E) 03:25:29 435.822 SSB
PCSat 26 Oct 03:20:40 03:22:28 12° 102° (ESE) 03:24:16 145.825 MHz
Oscar 19 26 Oct 03:41:06 03:46:16 87° 286° (WNW) 03:51:23 437.125 CW, 437.150 USB
OPAL 26 Oct 03:41:14 03:43:05 12° 45° (NE) 03:44:57 ?
Gurwin Techsat 1B 26 Oct 03:44:09 03:48:43 28° 93° (E) 03:53:14 435.225 FM
JAS-1B 26 Oct 03:52:02 03:58:32 88° 107° (ESE) 04:06:19 435.800 - 435.900 CW/SSB
RS-15 26 Oct 03:52:05 04:02:14 41° 1° (N) 04:12:39 29.354 - 29.394 USB, Beacon 29.352 USB
TMSAT-1 26 Oct 03:54:34 03:59:00 26° 92° (E) 04:03:25 436.925 FM
AO-27 26 Oct 04:02:10 04:07:24 65° 103° (ESE) 04:12:35 436.795 MHz FM
AO-Echo 26 Oct 04:11:06 04:16:27 85° 286° (WNW) 04:21:47 ?
AO-7 26 Oct 04:13:22 04:17:30 14° 82° (E) 04:21:36 29.400 - 29.500 MHz
Oscar 16 26 Oct 04:27:26 04:32:11 39° 296° (WNW) 04:36:54 437.025 USB, Beacon 2401.1428
